Regional Weather Roundup
Issued by NWS Midland/Odessa, TX

Skip options and go directly to product.
Home | Oldest Version | Next Version | Current Version | All | Text Only | Save Text | Print | Product List | Glossary On

Skip product version selection by date and time.   
484
ASUS44 KMAF 151602
RWRMAF
MIDLAND AREA WEATHER ROUNDUP
NATIONAL WEATHER SERVICE MIDLAND TX
1100 AM CDT MON SEP 15 2014

...IN SOUTHWEST TEXAS AND SOUTHEAST NEW MEXICO...

CITY           SKY/WX    TMP DP  RH WIND       PRES   REMARKS
ALPINE         CLOUDY    66  60  79 CALM      30.31R
ANDREWS        CLOUDY    68  65  89 S8        30.22S
ARTESIA        NOT AVBL
BIG SPRING     PTSUNNY   74  66  75 S8        30.23S
CARLSBAD       CLOUDY    66  66 100 VRB5      30.20R
DRYDEN           N/A     74  67  78 SE9       30.17R
FORT STOCKTON  PTSUNNY   71  63  75 S9        30.20R
GUAD PASS      CLOUDY    60  59  96 E12       30.29S
HOBBS          CLOUDY    64  64 100 SE7       30.24R
MARFA          CLOUDY    63  57  82 SE6       30.29S
MIDLAND AIRPK  NOT AVBL
MIDLAND INTL   CLOUDY    71  65  81 S13       30.21R
ODESSA         CLOUDY    70  64  81 S13       30.22R
PECOS          CLOUDY    67  63  85 CALM      30.19R
PRESIDIO       FAIR      73  61  65 NE3       30.17S
SEMINOLE       CLOUDY    68  64  86 S9        30.23S
SNYDER         CLOUDY    73  65  77 S7        30.21R
WINK           CLOUDY    72  65  78 SE10      30.18R
$$
...OTHER STATIONS IN TEXAS...

CITY           SKY/WX    TMP DP  RH WIND       PRES   REMARKS
ABILENE        CLOUDY    77  65  66 S10       30.19R
AMARILLO       CLOUDY    68  60  75 SW20G25   30.20S
AUSTIN         CLOUDY    77  68  73 NE3       30.14R
BROWNSVILLE    HVY RAIN  75  74  96 N9        30.05R FOG
CORPUS CHRISTI PTSUNNY   82  71  69 NE10      30.08S
DALLAS FTW     CLOUDY    78  66  66 VRB3      30.16R
DEL RIO        CLOUDY    75  68  78 SE8       30.14S
EL PASO        PTSUNNY   70  58  65 NE8       30.19R
HOUSTON INT    MOSUNNY   82  72  71 E3        30.10F
LUBBOCK        PTSUNNY   71  62  73 SW20      30.22R
SAN ANGELO     CLOUDY    74  68  81 S6        30.19R
SAN ANTONIO    CLOUDY    77  67  71 VRB5      30.15R
WACO           CLOUDY    75  68  78 S6        30.15S
WICHITA FALLS  NOT AVBL
$$
...OTHER LOCATIONS IN NEW MEXICO...

CITY           SKY/WX    TMP DP  RH WIND       PRES   REMARKS
ALAMAGORDO     SUNNY     72  57  60 NW5       30.22S
ALBUQUERQUE    MOSUNNY   69  55  60 S8        30.28R
CANNON AFB     CLOUDY    63  61  94 SW10      30.24S
CLOVIS           N/A     64  57  77 SW10G17   30.27R
HOLLOMAN AFB   SUNNY     71  59  65 CALM      30.20S
ROSWELL        CLOUDY    64  61  90 S7        30.22S
RUIDOSO        SUNNY     63  55  77 W5        30.36S
SANTA FE       SUNNY     69  50  50 N9        30.31R
TRUTH OR CONSE SUNNY     71  57  61 VRB3      30.23R
TUCUMCARI      CLOUDY    67  57  70 SW15      30.21R
$$

USA.gov is the U.S. government's official web portal to all federal, state and local government web resources and services.